DW7413 Weather Reports


Display with metric or nautical units.
time (UTC)temp
F
wind
direction
speed
MPH
gust
MPH
rain 1hr
in
rain 24hr
in
rain mn
in
humidity
%
barometer
mb
20181114232402 62 315 0.0 1.0 0.00 0.00 0.00 30 1023.8
20181114231402 62 317 0.0 0.0 0.00 0.00 0.00 29 1023.8
20181114230403 63 317 0.0 0.0 0.00 0.00 0.00 30 1023.9
20181114225402 63 313 0.0 0.0 0.00 0.00 0.00 31 1024.0
20181114224402 63 313 0.0 1.0 0.00 0.00 0.00 31 1024.1
20181114223402 63 313 0.0 1.0 0.00 0.00 0.00 31 1024.1
20181114222402 63 313 0.0 1.0 0.00 0.00 0.00 31 1024.2
20181114221402 63 313 0.0 1.0 0.00 0.00 0.00 30 1024.3
20181114220402 63 310 0.0 1.0 0.00 0.00 0.00 32 1024.4
20181114215402 63 306 0.0 0.0 0.00 0.00 0.00 34 1024.4
20181114214402 63 306 0.0 1.0 0.00 0.00 0.00 34 1024.6
20181114213402 62 306 0.0 1.0 0.00 0.00 0.00 38 1024.6
20181114212402 62 144 0.0 0.0 0.00 0.00 0.00 36 1024.7
20181114211402 62 144 0.0 0.0 0.00 0.00 0.00 35 1024.7
20181114210402 61 144 0.0 1.0 0.00 0.00 0.00 36 1024.9
20181114205403 61 144 0.0 0.0 0.00 0.00 0.00 34 1025.0
20181114204402 62 144 0.0 1.0 0.00 0.00 0.00 32 1025.2
20181114203402 63 146 0.0 2.0 0.00 0.00 0.00 31 1025.3
20181114202402 64 146 1.0 3.0 0.00 0.00 0.00 29 1025.5
20181114201402 66 302 0.0 2.0 0.00 0.00 0.00 29 1025.7
20181114200402 65 247 0.0 2.0 0.00 0.00 0.00 28 1025.8
20181114195403 65 184 1.0 2.0 0.00 0.00 0.00 28 1026.0
20181114194403 65 172 0.0 4.0 0.00 0.00 0.00 27 1026.3
20181114193403 66 179 1.0 2.0 0.00 0.00 0.00 27 1026.4
20181114192402 67 198 0.0 2.0 0.00 0.00 0.00 25 1026.6
20181114191403 67 360 0.0 1.0 0.00 0.00 0.00 24 1026.8
20181114190402 67 5 0.0 2.0 0.00 0.00 0.00 24 1026.9
20181114185403 66 5 0.0 2.0 0.00 0.00 0.00 24 1027.1
20181114184403 65 5 0.0 1.0 0.00 0.00 0.00 25 1027.2
20181114183402 65 360 0.0 1.0 0.00 0.00 0.00 24 1027.4
20181114182402 64 5 0.0 1.0 0.00 0.00 0.00 25 1027.5
20181114181403 64 5 0.0 1.0 0.00 0.00 0.00 28 1027.5
20181114180403 63 5 0.0 2.0 0.00 0.00 0.00 27 1027.6
20181114175402 62 355 0.0 2.0 0.00 0.00 0.00 27 1027.6
20181114174403 61 360 0.0 2.0 0.00 0.00 0.00 30 1027.7
20181114173402 60 360 1.0 1.0 0.00 0.00 0.00 31 1027.8
20181114172403 59 360 0.0 1.0 0.00 0.00 0.00 32 1027.9
20181114171403 58 360 0.0 1.0 0.00 0.00 0.00 33 1027.9
20181114170404 56 360 0.0 2.0 0.00 0.00 0.00 34 1028.0
20181114165403 55 5 0.0 1.0 0.00 0.00 0.00 34 1028.0
20181114164403 54 355 0.0 1.0 0.00 0.00 0.00 36 1028.0
20181114163403 53 355 0.0 1.0 0.00 0.00 0.00 37 1028.1
20181114162403 52 5 0.0 1.0 0.00 0.00 0.00 38 1028.0
20181114161403 51 5 0.0 0.0 0.00 0.00 0.00 40 1028.1
20181114160403 50 5 0.0 0.0 0.00 0.00 0.00 40 1028.0
20181114155403 49 5 0.0 0.0 0.00 0.00 0.00 41 1027.9
20181114154403 48 5 0.0 0.0 0.00 0.00 0.00 40 1027.7
20181114153403 48 5 0.0 0.0 0.00 0.00 0.00 38 1027.6
20181114152402 48 5 0.0 1.0 0.00 0.00 0.00 38 1027.4
20181114151403 47 5 0.0 1.0 0.00 0.00 0.00 38 1027.3
20181114150403 47 5 0.0 0.0 0.00 0.00 0.00 39 1027.1
20181114145403 47 5 0.0 1.0 0.00 0.00 0.00 39 1027.1
20181114144403 47 5 0.0 0.0 0.00 0.00 0.00 40 1027.1
20181114143403 47 5 0.0 1.0 0.00 0.00 0.00 40 1027.2
20181114142403 47 360 0.0 0.0 0.00 0.00 0.00 40 1027.1
20181114141403 47 360 0.0 0.0 0.00 0.00 0.00 40 1027.4
20181114140403 47 360 0.0 1.0 0.00 0.00 0.00 39 1027.6
20181114135403 47 360 0.0 1.0 0.00 0.00 0.00 40 1027.3
20181114134403 47 360 0.0 1.0 0.00 0.00 0.00 41 1027.3
20181114133403 46 355 0.0 1.0 0.00 0.00 0.00 41 1027.4
20181114132403 46 355 0.0 0.0 0.00 0.00 0.00 42 1027.4
20181114131403 46 355 0.0 0.0 0.00 0.00 0.00 42 1027.3
20181114130404 46 355 0.0 0.0 0.00 0.00 0.00 42 1027.4
20181114125403 46 355 0.0 0.0 0.00 0.00 0.00 42 1027.3
20181114124403 47 355 0.0 1.0 0.00 0.00 0.00 42 1027.4
20181114123403 47 355 0.0 1.0 0.00 0.00 0.00 43 1027.3
20181114122403 47 360 0.0 1.0 0.00 0.00 0.00 43 1027.3
20181114121403 47 360 0.0 1.0 0.00 0.00 0.00 43 1027.5
20181114120403 47 5 0.0 1.0 0.00 0.00 0.00 42 1027.5
20181114115403 47 5 0.0 0.0 0.00 0.00 0.00 42 1027.5
20181114114403 47 5 0.0 2.0 0.00 0.00 0.00 42 1027.5
20181114113403 47 5 0.0 1.0 0.00 0.00 0.00 42 1027.5
20181114112403 47 5 0.0 1.0 0.00 0.00 0.00 42 1027.5
20181114111403 47 13 0.0 1.0 0.00 0.00 0.00 42 1027.7
20181114110403 47 23 0.0 0.0 0.00 0.00 0.00 42 1027.8
20181114105403 47 27 0.0 1.0 0.00 0.00 0.00 42 1028.0
20181114104403 47 27 0.0 1.0 0.00 0.00 0.00 42 1028.0
20181114103403 47 27 0.0 0.0 0.00 0.00 0.00 43 1028.1
20181114102403 47 27 0.0 0.0 0.00 0.00 0.00 43 1028.2
20181114101403 47 27 0.0 0.0 0.00 0.00 0.00 43 1028.1
20181114100403 48 27 0.0 0.0 0.00 0.00 0.00 43 1028.1
20181114095403 47 27 0.0 1.0 0.00 0.00 0.00 42 1028.1
20181114094403 47 27 0.0 0.0 0.00 0.00 0.00 42 1028.1
20181114093403 47 27 0.0 1.0 0.00 0.00 0.00 43 1028.1
20181114092403 47 27 0.0 1.0 0.00 0.00 0.00 43 1028.1
20181114091403 47 27 0.0 0.0 0.00 0.00 0.00 43 1028.2
20181114090403 47 29 0.0 1.0 0.00 0.00 0.00 43 1028.1
20181114085403 47 32 0.0 0.0 0.00 0.00 0.00 44 1028.1
20181114084403 47 32 0.0 0.0 0.00 0.00 0.00 44 1028.0
20181114083403 47 32 0.0 1.0 0.00 0.00 0.00 43 1028.0
20181114082403 47 112 0.0 1.0 0.00 0.00 0.00 44 1028.1
20181114081403 47 112 0.0 1.0 0.00 0.00 0.00 44 1028.1
20181114080403 47 112 0.0 0.0 0.00 0.00 0.00 44 1028.1
20181114075403 47 112 0.0 0.0 0.00 0.00 0.00 44 1028.0
20181114074403 47 112 0.0 1.0 0.00 0.00 0.00 44 1028.0
20181114073403 47 113 0.0 1.0 0.00 0.00 0.00 45 1028.0
20181114072403 47 113 0.0 1.0 0.00 0.00 0.00 44 1028.2
20181114071403 46 153 0.0 1.0 0.00 0.00 0.00 46 1028.3
20181114070403 46 153 0.0 1.0 0.00 0.00 0.00 47 1028.3
20181114065403 46 155 0.0 1.0 0.00 0.00 0.00 47 1028.4
20181114064403 46 155 0.0 0.0 0.00 0.00 0.00 48 1028.4
20181114063403 47 155 0.0 0.0 0.00 0.00 0.00 48 1028.4
20181114062403 47 155 0.0 0.0 0.00 0.00 0.00 48 1028.4
20181114061403 48 155 0.0 0.0 0.00 0.00 0.00 46 1028.3
20181114060403 48 155 0.0 0.0 0.00 0.00 0.00 43 1028.4
20181114055403 49 155 0.0 0.0 0.00 0.00 0.00 43 1028.4
20181114054403 49 155 0.0 0.0 0.00 0.00 0.00 41 1028.3
20181114053403 50 155 0.0 0.0 0.00 0.00 0.00 39 1028.3
20181114052403 50 155 0.0 0.0 0.00 0.00 0.00 37 1028.3
20181114051403 50 155 0.0 0.0 0.00 0.00 0.00 38 1028.1
20181114050403 51 155 0.0 0.0 0.00 0.00 0.00 38 1028.0
20181114045403 51 155 0.0 0.0 0.00 0.00 0.00 38 1027.9
20181114044403 51 155 0.0 0.0 0.00 0.00 0.00 38 1027.9
20181114043404 51 155 0.0 0.0 0.00 0.00 0.00 38 1027.9
20181114042403 51 155 0.0 0.0 0.00 0.00 0.00 38 1027.9
20181114041403 51 155 0.0 0.0 0.00 0.00 0.00 38 1027.8
20181114040403 52 155 0.0 0.0 0.00 0.00 0.00 39 1027.8
20181114035403 52 155 0.0 1.0 0.00 0.00 0.00 39 1027.6
20181114034403 52 155 0.0 0.0 0.00 0.00 0.00 39 1027.7
20181114033403 52 155 0.0 0.0 0.00 0.00 0.00 38 1027.8
20181114032403 52 155 0.0 0.0 0.00 0.00 0.00 39 1027.8
20181114031403 52 155 0.0 1.0 0.00 0.00 0.00 39 1027.9
20181114030403 52 155 0.0 0.0 0.00 0.00 0.00 39 1028.0
20181114025403 52 155 0.0 0.0 0.00 0.00 0.00 38 1028.1
20181114024403 52 155 0.0 0.0 0.00 0.00 0.00 38 1028.3
20181114023403 52 155 0.0 0.0 0.00 0.00 0.00 38 1028.3
20181114022403 52 155 0.0 0.0 0.00 0.00 0.00 38 1028.3
20181114021403 52 155 0.0 0.0 0.00 0.00 0.00 39 1028.4
20181114020403 52 155 0.0 0.0 0.00 0.00 0.00 37 1028.3
20181114015403 53 155 0.0 0.0 0.00 0.00 0.00 38 1028.4
20181114014403 53 155 0.0 0.0 0.00 0.00 0.00 39 1028.3
20181114013403 54 155 0.0 0.0 0.00 0.00 0.00 40 1028.3
20181114012403 54 155 0.0 0.0 0.00 0.00 0.00 39 1028.4
20181114011403 55 155 0.0 0.0 0.00 0.00 0.00 38 1028.4
20181114010403 55 155 0.0 0.0 0.00 0.00 0.00 37 1028.4
20181114005404 56 155 0.0 0.0 0.00 0.00 0.00 39 1028.4
20181114004403 57 155 0.0 0.0 0.00 0.00 0.00 37 1028.4
20181114003403 57 155 0.0 0.0 0.00 0.00 0.00 37 1028.5
20181114002403 58 155 0.0 0.0 0.00 0.00 0.00 38 1028.6
20181114001403 58 155 0.0 0.0 0.00 0.00 0.00 35 1028.6
20181114000403 59 155 0.0 0.0 0.00 0.00 0.00 37 1028.6
20181113235403 60 155 0.0 0.0 0.00 0.00 0.00 35 1028.7
20181113234403 60 155 0.0 0.0 0.00 0.00 0.00 34 1028.7
20181113233403 60 155 0.0 0.0 0.00 0.00 0.00 34 1028.7